sat.trackr.live / text

‹ back to catalog

STARLINK-35584

NORAD 66106 · 2025-236W

PAYLOAD ACTIVE UNKNOWN

§ Identity

Operator
Country
US
Launch date
2025-10-19
Launch site
AFWTR
Launch vehicle
Mass (kg)
RCS (m²)

Purposes: comms

External: N2YO · Heavens-Above · Gunter

§ Orbital elements

Epoch: 2026-09-20T12:16:59.789568Z

Period
93.85 min
Inclination
53.1594°
Eccentricity
0.0001337
Mean motion
15.34405334 rev/d
Perigee alt
461.8 km
Apogee alt
463.6 km
Semi-major
6,840.8 km
B*
5.0068e-4
RAAN
275.3331°
Arg perigee
82.7009°
Mean anomaly
277.4145°
Rev number
5,282

§ Raw data

STARLINK-355841 66106U 25236W   26263.51180312  .00016580  00000+0  50068-3 0  99982 66106  53.1594 275.3331 0001337  82.7009 277.4145 15.34405334 52821

JSON: /api/v1/satellites/66106 · /tle

For live sub-satellite position, see the globe view (requires WebGL).

§ Visibility from observer

Set your observer location to see the next 7 days of passes ≥ 10°. The values pass through the URL so the page stays shareable.

No JS? Fill the form by hand. The geolocation button needs JavaScript.